Vorticity
nan nan nan nan nan nan nan nan nan nan nan nan nan nan nan nan nan nan nan nan nan nan nan nan nan nan nan nan nan nan nan nan nan nan nan nan nan nan nan nan nan nan nan nan nan
nan 6 7 6 6 7 7 7 8 8 7 7 7 6 7 9 17 18 15 7 7 8 15 14 11 6 5 7 6 6 2 3 2 7 9 1 3 7 9 9 3 3 1 2 nan
nan 7 7 7 7 8 8 8 7 8 8 7 7 7 7 14 19 17 3 -2 3 9 14 12 14 12 5 6 6 -1 -1 5 2 5 6 5 6 2 1 6 6 8 -3 -6 nan
nan 7 7 7 8 8 8 8 7 7 8 8 10 9 12 14 14 9 1 3 7 14 9 11 15 11 8 6 2 2 6 2 4 5 6 6 4 6 5 5 2 1 -2 -3 nan
nan 7 8 8 8 9 9 9 9 9 10 11 9 10 15 13 7 5 4 8 10 11 10 7 10 14 9 7 7 10 4 4 6 6 3 7 5 9 7 5 4 -2 1 1 nan
nan 8 8 8 8 9 9 10 11 11 11 13 11 9 10 10 4 3 4 8 9 6 11 12 7 4 16 15 11 8 8 6 7 7 4 8 2 3 6 4 5 6 6 7 nan
nan 8 8 8 8 8 9 10 10 11 14 15 10 7 4 3 4 4 11 11 10 5 5 13 11 4 6 13 12 8 8 13 13 9 5 7 10 3 5 6 5 6 8 7 nan
nan 7 7 7 8 8 8 8 11 18 21 15 6 3 10 5 5 8 9 14 11 6 7 9 15 9 2 4 11 17 15 12 9 8 11 8 5 11 9 9 5 4 6 7 nan
nan 7 6 7 8 8 9 13 26 22 14 8 3 4 10 2 2 11 9 6 9 15 9 8 13 10 13 8 7 9 11 8 8 12 9 6 4 7 7 14 10 6 6 9 nan
nan 8 7 8 8 8 12 25 22 10 2 1 8 10 -2 -5 3 12 15 8 8 11 10 8 5 10 9 8 7 6 4 4 11 16 8 3 4 4 8 9 8 7 6 6 nan
nan 9 8 8 9 11 21 23 8 6 -2 2 7 8 0 5 11 10 8 12 12 6 11 9 3 7 8 10 6 4 8 8 14 11 14 12 6 6 4 -1 6 6 6 6 nan
nan 8 9 9 9 17 19 10 10 7 10 12 8 7 9 4 6 7 8 10 5 6 13 12 5 5 9 11 16 15 11 9 0 11 21 11 10 11 11 10 9 7 6 4 nan
nan 9 11 11 16 20 12 9 5 10 10 13 12 10 8 5 10 6 9 9 6 9 10 5 6 12 11 9 13 9 11 11 3 10 12 11 13 11 10 7 8 8 7 7 nan
nan 11 14 18 19 13 11 3 7 12 13 13 10 9 -1 11 12 10 10 7 8 8 10 8 8 9 8 7 8 12 14 8 15 8 10 3 8 17 12 9 7 7 8 8 nan
nan 15 22 18 12 9 5 8 15 9 9 8 6 1 7 9 13 10 3 8 7 11 13 6 3 9 11 9 5 8 14 16 12 10 9 1 4 10 11 11 12 13 13 11 nan
nan 22 25 15 6 5 6 14 10 4 10 8 3 1 7 13 11 4 7 13 16 13 13 12 14 13 9 11 11 15 14 16 12 12 16 14 5 5 16 18 16 18 15 12 nan
nan 26 20 5 7 7 11 10 4 10 7 2 2 3 12 14 7 5 11 14 13 14 10 16 13 17 25 18 14 12 10 16 14 8 10 12 6 8 2 8 11 10 16 12 nan
nan 28 13 6 8 10 10 7 8 9 4 4 4 11 15 7 8 6 10 14 10 9 11 11 12 7 15 15 18 16 5 7 5 7 13 9 7 7 -0 1 2 3 13 8 nan
nan 22 6 5 10 10 10 10 7 5 6 5 10 18 9 4 3 7 11 15 7 9 9 9 5 7 11 11 20 14 8 6 3 10 21 23 10 1 10 14 15 11 5 10 nan
nan 9 7 6 12 11 11 10 8 6 5 9 13 6 -1 9 9 9 13 9 12 6 3 4 8 16 8 14 20 20 14 10 10 14 13 17 11 15 20 11 7 7 7 6 nan
nan 7 5 12 14 11 7 8 11 8 10 9 9 6 7 10 9 9 7 5 8 1 3 17 14 6 6 13 20 28 9 3 9 13 13 12 18 12 17 20 11 2 3 4 nan
nan 10 7 11 13 9 6 6 13 12 10 8 10 11 7 6 12 12 7 6 0 8 14 19 14 10 17 16 6 4 11 14 18 13 1 3 11 21 20 3 -4 -3 0 2 nan
nan 13 9 11 10 8 11 12 9 8 6 13 9 5 6 11 9 10 7 7 7 11 11 10 10 7 18 10 9 0 7 12 6 4 14 12 2 6 -6 -8 -6 -1 4 3 nan
nan 14 9 10 7 5 10 13 9 10 9 8 7 9 10 11 8 3 9 7 5 4 4 12 10 4 1 2 10 5 9 9 5 5 10 6 7 5 -10 -9 3 4 2 4 nan
nan 9 8 7 3 6 15 9 7 11 10 7 13 8 6 3 8 9 5 4 15 15 15 13 8 9 7 9 5 7 7 8 7 4 7 6 7 2 1 1 3 7 6 9 nan
nan 10 9 10 9 11 13 9 8 6 8 12 8 4 5 10 9 6 4 14 12 12 16 10 8 10 12 18 16 12 11 11 12 10 9 6 7 6 6 7 6 7 8 8 nan
nan nan nan nan nan nan nan nan nan nan nan nan nan nan nan nan nan nan nan nan nan nan nan nan nan nan nan nan nan nan nan nan nan nan nan nan nan nan nan nan nan nan nan nan nan
CAPE
6 5 3 4 2 2 4 2 2 4 4 2 1 1 0 0 0 0 0 0 0 0 0 0 0 0 0 0 0 0 0 0 0 0 0 0 0 0 0 0 0 0 0 0 55
4 6 6 4 4 3 3 3 2 2 2 2 2 2 2 1 0 0 0 0 0 0 0 0 0 0 0 0 0 0 0 0 0 0 0 0 0 0 0 0 0 0 0 0 0
6 7 7 5 5 3 4 2 1 1 3 3 3 3 2 0 0 0 0 0 0 0 0 0 0 0 0 0 0 0 0 0 0 0 0 0 0 0 0 0 0 0 0 0 0
10 10 8 7 6 4 4 2 2 2 2 1 3 1 0 0 0 0 0 0 0 0 0 0 0 0 0 0 0 0 0 0 0 0 0 0 0 0 0 0 0 0 0 0 0
8 7 7 7 6 4 4 3 4 6 2 1 0 0 0 0 0 0 0 0 0 0 0 0 0 0 0 0 0 0 0 0 0 0 0 0 0 0 0 0 0 0 0 0 0
8 5 6 4 2 1 2 3 1 4 1 0 0 0 0 0 0 0 0 0 0 0 0 0 0 0 0 0 0 0 0 0 0 0 0 0 0 0 0 0 0 0 0 0 0
6 6 7 4 3 1 1 0 2 2 0 0 0 0 0 0 0 0 0 0 0 0 0 0 0 0 0 0 0 0 0 0 0 0 0 0 0 0 0 0 0 0 0 0 0
8 9 3 2 2 1 0 0 1 0 0 0 0 0 0 0 0 0 0 0 0 0 0 0 0 0 0 0 0 0 0 0 0 0 0 0 0 0 0 0 0 0 0 0 0
6 9 3 3 2 1 0 1 0 0 0 0 0 0 0 0 0 0 0 0 0 0 0 0 0 0 0 0 0 0 0 0 0 0 0 0 0 0 0 0 0 0 0 0 0
3 9 4 2 3 1 0 0 0 0 0 0 0 0 0 0 0 0 0 0 0 0 0 0 0 0 0 0 0 0 0 0 0 0 0 0 0 0 0 0 0 0 0 0 0
2 6 6 2 2 1 0 0 0 0 0 0 0 0 0 0 0 0 0 0 0 0 0 0 0 0 0 0 0 0 0 0 0 0 0 0 0 0 0 0 0 0 0 0 0
3 5 3 2 0 0 0 0 0 0 0 0 0 0 0 0 0 0 0 0 0 0 0 0 0 0 0 0 0 0 0 0 0 0 0 0 0 0 0 0 0 0 0 0 0
7 3 2 2 0 0 0 0 0 0 0 0 0 0 0 0 0 0 0 0 0 0 0 0 0 5 0 0 0 0 0 1 1 4 0 0 0 0 0 0 0 0 0 0 0
15 5 5 1 0 0 0 0 0 0 0 0 0 0 0 0 0 0 0 0 0 0 0 2 0 0 7 7 4 10 0 1 11 31 5 2 0 0 0 0 0 0 0 0 0
11 8 6 1 0 0 0 0 0 0 0 0 0 0 0 0 0 0 0 0 0 1 14 5 29 54 80 40 30 17 7 15 25 27 32 1 2 0 0 0 0 0 0 0 0
7 6 1 0 0 0 0 0 0 1 0 0 0 0 0 0 0 0 0 0 2 19 81 58 109 101 83 80 84 39 37 37 50 47 55 0 16 0 0 0 0 0 0 0 0
3 1 0 0 0 0 0 0 0 0 0 0 0 0 0 0 0 0 0 0 72 80 98 106 130 119 172 143 80 39 87 103 67 67 29 4 26 0 0 0 0 0 0 0 0
0 0 0 0 0 0 0 0 0 0 0 0 0 0 0 0 0 0 0 30 96 123 160 139 120 101 0 125 110 47 71 140 68 38 11 12 19 0 0 0 0 0 0 0 0
0 0 0 0 0 0 0 2 0 0 0 3 3 2 6 1 0 2 22 34 104 145 155 128 91 37 4 16 241 132 105 88 19 26 60 0 8 0 0 0 0 0 0 0 0
0 0 0 0 0 0 0 0 0 0 1 9 22 8 20 25 10 12 11 32 69 88 178 137 167 87 74 1 56 240 136 103 51 61 68 9 0 0 0 0 0 0 0 0 0
0 2 0 0 0 0 0 0 0 0 1 11 19 26 28 19 24 33 30 49 70 97 128 146 207 171 80 0 96 41 95 36 93 74 29 32 0 3 0 0 0 0 0 0 0
0 0 0 0 1 0 0 0 0 1 12 16 27 30 27 32 30 31 38 76 81 149 166 114 202 230 165 1 2 32 122 182 177 123 12 2 25 0 20 0 0 0 0 0 0
0 0 0 0 0 0 0 0 0 4 8 12 18 26 30 38 31 27 35 43 50 86 120 231 226 237 169 124 95 129 97 166 252 191 121 59 14 2 0 0 0 0 0 0 0
0 0 0 0 0 0 0 0 1 2 2 19 15 19 33 38 35 19 18 12 28 59 51 87 167 179 270 132 90 74 112 102 193 255 93 86 60 40 9 0 0 0 0 0 0
0 1 0 2 8 0 1 0 1 6 12 18 12 20 18 29 27 26 9 19 24 27 74 52 147 164 166 107 68 45 52 114 152 109 146 66 42 24 7 1 0 0 0 0 0
8 12 7 10 12 14 2 1 4 8 4 2 10 12 15 13 9 14 16 24 35 22 46 54 48 59 79 67 48 31 16 16 26 28 52 21 8 0 0 0 0 0 0 0 0
7 0 4 3 10 11 10 5 6 18 2 4 16 20 31 22 19 21 13 16 15 39 20 51 46 44 28 6 6 15 32 28 10 13 27 24 15 0 0 0 0 0 0 0 0